This is the latest recevied weather packets stored in our database for station/object HK6REC-22. If no packets are shown the sender has not sent any weather packets the latest 10 day(s).
| Time | Temp. | Humidity | Pressure | Rain* | Wind** | Luminosity | Snow |
|---|---|---|---|---|---|---|---|
| 1788155672 | 75° F | 91% | 761.3 mmHg | 0.01 in | - | - | - |
| 1788153871 | 75° F | 88% | 762.1 mmHg | 0 in | - | - | - |
| 1788152071 | 75° F | 91% | 761.3 mmHg | 0 in | - | - | - |
| 1788150270 | 63° F | 88% | 762.1 mmHg | 0 in | - | - | - |
| 1788148469 | 63° F | 91% | 761.3 mmHg | 0 in | - | - | - |
| 1788146668 | 75° F | 89% | 762.1 mmHg | 0 in | - | - | - |
| 1788144867 | 63° F | 91% | 761.3 mmHg | 0 in | - | - | - |
| 1788143066 | 63° F | 88% | 761.3 mmHg | 0 in | - | - | - |
| 1788141265 | 64° F | 91% | 760.6 mmHg | 0 in | - | - | - |
| 1788139464 | 65° F | 88% | 760.6 mmHg | 0 in | - | - | - |
| 1788137663 | 65° F | 91% | 759.8 mmHg | 0 in | - | - | - |
| 1788135862 | 66° F | 88% | 759.8 mmHg | 0 in | - | - | - |
| 1788134061 | 66° F | 89% | 759.1 mmHg | 0 in | - | - | - |
| 1788132260 | 67° F | 87% | 759.1 mmHg | 0.01 in | - | - | - |
| 1788130459 | 68° F | 88% | 758.3 mmHg | 0.01 in | - | - | - |
| 1788128658 | 70° F | 87% | 758.3 mmHg | 0 in | - | - | - |
| 1788126857 | 83° F | 88% | 757.6 mmHg | 0 in | - | - | - |
| 1788125057 | 70° F | 87% | 758.3 mmHg | 0.01 in | - | - | - |
| 1788123256 | 71° F | 87% | 757.6 mmHg | 0.01 in | - | - | - |
| 1788121455 | 71° F | 87% | 758.3 mmHg | 0 in | - | - | - |
| 1788119648 | 71° F | 84% | 757.6 mmHg | 0 in | - | - | - |
| 1788117848 | 73° F | 86% | 759.1 mmHg | 0 in | - | - | - |
| 1788116047 | 84° F | 77% | 758.3 mmHg | 0 in | - | - | - |
| 1788114246 | 72° F | 85% | 759.8 mmHg | 0 in | - | - | - |
| 1788112445 | 72° F | 80% | 759.8 mmHg | 0 in | - | - | - |
* Rain latest hour (hover to see other rain measurements)
** Current wind speed in m/s (hover to see current wind gust speed)